Aérodrome :
LOGIN :

S'inscrire | Disclaimer

   EN    FR    IT 

 










Légende :    VFR   VFR Marginal   IFR   IFR Intensif   IFR Très Intensif
Visi : 
Plafond : 
>= 8 km
>= 3000ft
5 à 8 km
1000 à 3000 ft
1500m à 5 km
500 à 1000 ft
800 à 1500m
200 à 500 ft
< 800m
< 200 ft
Symboles :   Orages  Brouillard  Fortes neiges  Fortes précipitations  Vent > 20 kt
SIGMETs :   Divers  Orages  Givrage  Turbulence  Onde Orograph.  Cendres Volcan.






- Altitude de l'aérodrome : 194 ft
- Code IATA : ANE


LFJR - Angers Marcé

DERNIER METAR :
  • 270600Z AUTO 07002KT 0500 0400 R26/1000U FG BKN032 03/03 Q1016

METARs EXPIRÉS :
  • 270530Z AUTO 06002KT 0750 0700 R26/0900D FG VV/// 03/03 Q1016
  • 270500Z AUTO VRB03KT 1100 0800 R26/1000U -RA BCFG VV/// 04/04 Q1016
  • 270430Z AUTO VRB02KT 1900 0750 R26/1200D BCFG FEW003 04/04 Q1016
  • 270400Z AUTO 06003KT 0650 0550 R26/0800U FG NSC 03/03 Q1016
  • 270330Z AUTO 04002KT 0550 0450 R26/0900U FG NSC 03/03 Q1016

Prévision TAF périmée.



MET'MAP, la Météo Aéronautique d'un coup d'oeil ! - Copyright ORBIFLY Décembre 2007 - Disclaimer

ORBIFLY MET'MAP TEAM :

Programmation & Développement : Alexandra Zaïnal
Sur une idée originale de : Baudouin d'Aumeries
Assistance à la programmation : Marc-Olivier Méhu
Soutien technique & logistique : Manuel Goepfert

Contact : metmap@orbifly.com




SOURCES & CREDITS :

   NOAA